Szeged, Hungary

2:33 AM CEST on August 26, 2016 (GMT +0200)
Szeged

Weather History for LHUD - October, 2013

Change the Weather History Date:

Wednesday, October 2, 2013

  Actual Average (LRAR) Record (LRAR)
Temperature  
Mean Temperature 47 °F -  
Max Temperature 53 °F 63 °F 84 °F (2012)
Min Temperature 39 °F 42 °F 39 °F (2002)
Degree Days  
Heating Degree Days 18    
Moisture  
Dew Point 40 °F    
Average Humidity 73    
Maximum Humidity 93    
Minimum Humidity 53    
Precipitation  
Precipitation 0.00 in 0.04 in - ()
Sea Level Pressure  
Sea Level Pressure 30.09 in    
Wind  
Wind Speed 10 mph ()    
Max Wind Speed 17 mph    
Max Gust Speed -    
Visibility 6.0 miles    
Events Rain    
Averages and records for this station are not official NWS values.
T = Trace of Precipitation, MM = Missing Value Source: Averaged Metar Reports

Daily Weather History Graph

Daily Weather History Graph

Search for Another Location

Airport or City:

Trip Planner

Search our weather history database for the weather conditions in past years. The results will help you decide how hot, cold, wet, or windy it might be!

Date:

Astronomy

Oct. 02, 2013 Rise Set
Actual Time 6:39 AM CEST 6:17 PM CEST
Civil Twilight 6:09 AM CEST 6:47 PM CEST
Nautical Twilight 5:34 AM CEST 7:22 PM CEST
Astronomical Twilight 4:59 AM CEST 7:57 PM CEST
Moon 3:46 AM CEST (10/2) 4:49 PM CEST (10/2)
Length of Visible Light 12h 38m
Length of Day
11h 38m
Waning Crescent, 7% of the Moon is Illuminated
Oct 2
Waning Crescent
Oct 5
New
Oct 12
First Quarter
Oct 19
Full
Oct 27
Last Quarter

Hourly Weather History & Observations

Time (CEST) Temp. Windchill Dew Point Humidity Pressure Visibility Wind Dir Wind Speed Gust Speed Precip Events Conditions
12:43 AM 46.4 °F 42.9 °F 44.6 °F 93% 29.92 in 2.8 mi NE 6.9 mph - N/A Rain Light Rain
12:45 AM 46.4 °F 42.9 °F 44.6 °F 93% 29.89 in 2.8 mi NE 6.9 mph - N/A Rain Light Rain
1:45 AM 46.4 °F 41.9 °F 44.6 °F 93% 29.92 in 2.8 mi NE 9.2 mph - N/A Rain Light Rain
2:00 AM 47 °F - 45 °F 90% 29.91 in 3 mi NE 8.9 mph - - Rain Light Rain
2:45 AM 46.4 °F 43.5 °F 44.6 °F 93% 29.92 in 3.1 mi NE 5.8 mph - N/A Rain Light Rain
3:45 AM 46.4 °F 41.1 °F 44.6 °F 93% 29.95 in 3.1 mi North 11.5 mph - N/A Rain Light Rain
4:45 AM 46.4 °F 40.7 °F 42.8 °F 87% 29.95 in 6.2 mi North 12.7 mph - N/A   Overcast
5:45 AM 44.6 °F 38.8 °F 42.8 °F 93% 29.95 in 6.2 mi North 11.5 mph - N/A   Mostly Cloudy
6:15 AM 44.6 °F 39.2 °F 41.0 °F 87% 29.98 in 6.2 mi NNE 10.4 mph - N/A   Mostly Cloudy
6:45 AM 44.6 °F 38.8 °F 41.0 °F 87% 29.98 in 6.2 mi North 11.5 mph - N/A   Mostly Cloudy
7:15 AM 44.6 °F 38.8 °F 41.0 °F 87% 29.98 in 6.2 mi NNE 11.5 mph - N/A   Mostly Cloudy
7:45 AM 46.4 °F 41.5 °F 41.0 °F 81% 30.01 in 6.2 mi North 10.4 mph - N/A   Mostly Cloudy
8:00 AM 46 °F - 41 °F 77% 30.00 in 25 mi North 11.2 mph - -   Partly Cloudy
8:15 AM 46.4 °F 41.9 °F 42.8 °F 87% 30.01 in 6.2 mi North 9.2 mph - N/A   Mostly Cloudy
8:45 AM 46.4 °F 41.5 °F 41.0 °F 81% 30.01 in 6.2 mi North 10.4 mph - N/A   Mostly Cloudy
9:15 AM 48.2 °F - 41.0 °F 76% 30.04 in 6.2 mi North 10.4 mph - N/A   Mostly Cloudy
9:45 AM 51.8 °F - 42.8 °F 71% 30.04 in 6.2 mi NNE 15.0 mph - N/A   Mostly Cloudy
10:15 AM 50.0 °F - 42.8 °F 76% 30.04 in 6.2 mi North 13.8 mph - N/A   Mostly Cloudy
10:45 AM 50.0 °F - 42.8 °F 76% 30.06 in 6.2 mi North 15.0 mph - N/A   Mostly Cloudy
11:15 AM 51.8 °F - 42.8 °F 71% 30.06 in 6.2 mi North 17.3 mph - N/A   Mostly Cloudy
11:45 AM 51.8 °F - 42.8 °F 71% 30.06 in 6.2 mi North 16.1 mph - N/A   Mostly Cloudy
12:15 PM 53.6 °F - 44.6 °F 72% 30.09 in 6.2 mi North 15.0 mph - N/A   Mostly Cloudy
12:45 PM 51.8 °F - 42.8 °F 71% 30.09 in 6.2 mi North 16.1 mph - N/A   Mostly Cloudy
1:15 PM 51.8 °F - 42.8 °F 71% 30.09 in 6.2 mi North 16.1 mph - N/A   Mostly Cloudy
1:45 PM 51.8 °F - 42.8 °F 71% 30.09 in 6.2 mi North 15.0 mph - N/A   Mostly Cloudy
2:00 PM 52 °F - 42 °F 61% 30.11 in 22 mi North 13.4 mph - -   Partly Cloudy
2:15 PM 51.8 °F - 41.0 °F 67% 30.12 in 6.2 mi North 16.1 mph - N/A   Mostly Cloudy
2:45 PM 51.8 °F - 41.0 °F 67% 30.12 in 6.2 mi North 15.0 mph - N/A   Mostly Cloudy
3:15 PM 51.8 °F - 41.0 °F 67% 30.12 in 6.2 mi NNE 15.0 mph - N/A   Mostly Cloudy
3:45 PM 53.6 °F - 39.2 °F 58% 30.12 in 6.2 mi North 16.1 mph - N/A   Scattered Clouds
4:15 PM 53.6 °F - 39.2 °F 58% 30.15 in 6.2 mi NNE 15.0 mph - N/A   Scattered Clouds
4:45 PM 51.8 °F - 39.2 °F 62% 30.15 in 6.2 mi NNE 13.8 mph - N/A   Partly Cloudy
5:15 PM 51.8 °F - 37.4 °F 58% 30.15 in 6.2 mi NNE 12.7 mph - N/A   Partly Cloudy
5:45 PM 50.0 °F - 37.4 °F 62% 30.18 in 6.2 mi NNE 12.7 mph - N/A   Scattered Clouds
6:15 PM 48.2 °F - 37.4 °F 66% 30.18 in - NE 8.1 mph - N/A   Clear
6:45 PM 48.2 °F - 37.4 °F 66% 30.21 in - NNE 5.8 mph - N/A   Clear
7:15 PM 46.4 °F 43.5 °F 37.4 °F 71% 30.21 in - NNE 5.8 mph - N/A   Clear
7:45 PM 46.4 °F 42.9 °F 37.4 °F 71% 30.21 in - North 6.9 mph - N/A   Clear
8:00 PM 47 °F - 37 °F 57% 30.23 in 19 mi North 6.7 mph - -   Partly Cloudy
8:15 PM 46.4 °F 42.9 °F 37.4 °F 71% 30.24 in - North 6.9 mph - N/A   Clear
8:45 PM 46.4 °F 40.7 °F 30.2 °F 53% 30.24 in - NNE 12.7 mph - N/A   Clear
9:15 PM 46.4 °F 40.4 °F 30.2 °F 53% 30.27 in - NNE 13.8 mph - N/A   Clear
9:45 PM 44.6 °F 38.1 °F 30.2 °F 57% 30.27 in - NNE 13.8 mph - N/A   Clear
10:45 PM 41.0 °F 35.2 °F 28.4 °F 61% 30.30 in - North 9.2 mph - N/A   Clear
11:45 PM 39.2 °F 33.6 °F 28.4 °F 65% 30.30 in - NNW 8.1 mph - N/A   Clear